This demonstration page uses our WeatherBlox Daily Observations layout. Learn more.

Left ArrowRight Arrow

38.20091, -84.87328

Hourly Observations for July 17, 2021

Temp ( °F °C ) Dew Point ( °F °C ) Humidity (%) Winds ( mph kmh ) Pressure ( in mb ) Visibility ( mi km ) Precip ( " mm )
12:17 am 00:17 Mostly Cloudy with Nearby Thunderstorms 75 23.9 70 21.1 84 84 WSW 8 13 29.99 1016 10 16 0.00 0.00
12:33 am 00:33 Cloudy with Nearby Thunderstorms 74 23.3 70 21.1 88 88 VRB 5 7 30.00 1016 10 16 0.00 0.00
12:44 am 00:44 Mostly Cloudy with Nearby Thunderstorms 74 23.3 70 21.1 88 88 W 3 6 29.99 1016 8 13 0.01 0.25
12:53 am 00:53 Mostly Cloudy with Light Rain 73 22.8 70 21.1 90 90 Calm 29.99 1016 7 11 0.02 0.51
1:13 am 01:13 Cloudy with Light Rain 73 22.8 70 21.1 90 90 SW 8 13 30.00 1016 9 14 0.00 0.00
1:37 am 01:37 Cloudy with Nearby Thunderstorms 73 22.8 71 21.7 94 94 SSW 6 9 29.99 1016 3 5 0.07 1.78
1:46 am 01:46 Cloudy with Nearby Thunderstorms 72 22.2 71 21.7 97 97 SW 6 9 29.99 1016 3 4 0.11 2.79
1:50 am 01:50 Cloudy with Strong Thunderstorms 72 22 72 22 100 100 SSW 6 9 30.01 1016 3 5 0.12 3.05
1:53 am 01:53 Cloudy with Thunderstorms 72 22.2 71 21.7 97 97 SSW 9 15 30.01 1016 4 6 0.12 3.05
1:59 am 01:59 Cloudy with Strong Thunderstorms 73 22.8 71 21.7 94 94 S 15 24 30.02 1017 2 3 0.18 4.57
2:06 am 02:06 Cloudy with Strong Thunderstorms 72 22.2 70 21.1 94 94 SSW 12 19 30.00 1016 1 2 0.29 7.37
2:12 am 02:12 Cloudy with Thunderstorms 72 22.2 69 20.6 91 91 SSW 7 11 29.98 1015 3 5 0.30 7.62
2:21 am 02:21 Cloudy with Nearby Thunderstorms 72 22.2 69 20.6 91 91 SSW 6 9 29.98 1015 6 10 0.32 8.13
2:29 am 02:29 Cloudy with Light Rain 72 22.2 70 21.1 94 94 SSW 6 9 29.98 1015 7 11 0.32 8.13
2:53 am 02:53 Mostly Cloudy with Light Rain 71 21.7 69 20.6 94 94 S 7 11 29.98 1015 10 16 0.34 8.64
3:48 am 03:48 Mostly Cloudy 72 22 70 21 94 94 S 5 7 29.98 1015 10 16 0.00 0.00
3:53 am 03:53 Mostly Cloudy with Nearby Thunderstorms 71 21.7 70 21.1 96 96 S 6 9 29.98 1015 10 16 0.00 0.00
4:11 am 04:11 Cloudy 72 22.2 70 21.1 94 94 S 6 9 29.97 1015 10 16 0.00 0.00
4:53 am 04:53 Cloudy 72 22.2 70 21.1 94 94 SSW 3 6 29.98 1015 10 16 0.00 0.00
5:48 am 05:48 Cloudy 72 22 70 21 94 94 WSW 5 7 29.99 1015 10 16 0.00 0.00
5:53 am 05:53 Cloudy 72 22.2 70 21.1 94 94 SW 5 7 29.99 1016 10 16 0.00 0.00
6:37 am 06:37 Cloudy with Nearby Thunderstorms 72 22.2 70 21.1 94 94 SW 6 9 29.99 1016 10 16 0.00 0.00
6:46 am 06:46 Cloudy with Nearby Thunderstorms 72 22.2 71 21.7 97 97 SW 7 11 30.00 1016 10 16 0.00 0.00
6:53 am 06:53 Cloudy with Nearby Thunderstorms 72 22.2 71 21.7 97 97 SSW 6 9 30.00 1016 10 16 0.00 0.00
7:07 am 07:07 Cloudy with Nearby Thunderstorms 73 22.8 71 21.7 94 94 SSW 6 9 30.00 1016 10 16 0.00 0.00
7:10 am 07:10 Cloudy 73 22.8 71 21.7 94 94 SW 6 9 30.01 1016 10 16 0.00 0.00
7:19 am 07:19 Cloudy 73 22.8 71 21.7 94 94 WNW 5 7 30.01 1016 10 16 0.00 0.00
7:53 am 07:53 Cloudy with Light Rain 73 22.8 71 21.7 94 94 WSW 5 7 30.03 1017 9 14 0.00 0.00
8:03 am 08:03 Cloudy with Rain 72 22.2 71 21.7 97 97 SW 5 7 30.02 1017 1 2 0.06 1.52
8:11 am 08:11 Cloudy with Rain 72 22.2 71 21.7 97 97 SW 8 13 30.02 1017 2 3 0.08 2.03
8:14 am 08:14 Cloudy with Light Rain 72 22.2 71 21.7 97 97 SW 7 11 30.02 1017 3 5 0.08 2.03
8:21 am 08:21 Cloudy with Light Rain 72 22.2 71 21.7 97 97 SW 7 11 30.02 1017 6 10 0.09 2.29
8:37 am 08:37 Cloudy 72 22.2 70 21.1 94 94 SW 7 11 30.02 1017 10 16 0.09 2.29
8:40 am 08:40 Cloudy 72 22.2 70 21.1 94 94 SW 7 11 30.02 1017 10 16 0.09 2.29
8:50 am 08:50 Cloudy 72 22 70 21 94 94 WSW 6 9 30.04 1017 10 16 0.09 2.29
8:53 am 08:53 Cloudy with Light Rain 72 22.2 70 21.1 94 94 WSW 6 9 30.04 1017 8 13 0.09 2.29
8:55 am 08:55 Cloudy with Light Rain 72 22.2 70 21.1 94 94 W 5 7 30.03 1017 5 8 0.01 0.25
9:03 am 09:03 Cloudy with Rain 72 22.2 70 21.1 94 94 WSW 5 7 30.03 1017 2 3 0.03 0.76
9:12 am 09:12 Cloudy with Light Rain 72 22.2 71 21.7 97 97 WSW 5 7 30.03 1017 3 5 0.04 1.02
9:25 am 09:25 Cloudy 73 22.8 71 21.7 94 94 SW 5 7 30.04 1017 10 16 0.04 1.02
9:53 am 09:53 Cloudy 74 23.3 72 22.2 94 94 WSW 7 11 30.05 1018 10 16 0.04 1.02
10:26 am 10:26 Cloudy 76 24.4 72 22.2 88 88 W 9 15 30.05 1018 10 16 0.00 0.00
10:34 am 10:34 Mostly Cloudy 76 24.4 71 21.7 85 85 WSW 7 11 30.04 1017 10 16 0.00 0.00
10:41 am 10:41 Cloudy 76 24.4 71 21.7 85 85 WSW 8 13 30.04 1017 10 16 0.00 0.00
10:53 am 10:53 Cloudy 75 23.9 71 21.7 88 88 W 7 11 30.05 1018 10 16 0.00 0.00
11:53 am 11:53 Cloudy 78 25.6 70 21.1 76 76 W 14 22 30.07 1018 10 16 0.00 0.00
12:53 pm 12:53 Mostly Cloudy 80 26.7 71 21.7 74 74 W 8 13 30.07 1018 10 16 0.00 0.00
1:53 pm 13:53 Mostly Cloudy 80 26.7 71 21.7 74 74 WNW 5 7 30.08 1019 10 16 0.00 0.00
2:53 pm 14:53 Cloudy 81 27.2 70 21.1 69 69 VRB 7 11 30.07 1018 10 16 0.00 0.00
3:53 pm 15:53 Sunny 84 28.9 69 20.6 61 61 WNW 9 15 30.06 1018 10 16 0.00 0.00
4:53 pm 16:53 Mostly Sunny 83 28.3 67 19.4 59 59 NW 7 11 30.05 1018 10 16 0.00 0.00
5:53 pm 17:53 Mostly Sunny 84 28.9 71 21.7 65 65 VRB 6 9 30.06 1018 10 16 0.00 0.00
6:53 pm 18:53 Mostly Sunny 83 28.3 70 21.1 65 65 N 5 7 30.05 1018 10 16 0.00 0.00
7:53 pm 19:53 Sunny 81 27.2 69 20.6 67 67 N 3 6 30.06 1018 10 16 0.00 0.00
8:53 pm 20:53 Sunny 79 26.1 70 21.1 74 74 N 5 7 30.06 1018 10 16 0.00 0.00
9:53 pm 21:53 Clear 73 22.8 70 21.1 90 90 Calm 30.08 1019 10 16 0.00 0.00
10:53 pm 22:53 Clear 72 22.2 70 21.1 94 94 Calm 30.10 1019 10 16 0.00 0.00
11:53 pm 23:53 Clear 71 21.7 70 21.1 96 96 Calm 30.11 1020 9 14 0.00 0.00

Powered by AerisWeather